Home   Weather   Hamburg   Past weeks

Flag for Germany Past Weather in Hamburg, Hamburg, Germany — Yesterday and Last 2 Weeks

Now
59 °F

Partly sunny.


Feels Like: 57 °F
Forecast: 49 / 62 °F
Wind: 13 mph from Southwest

Location: Hamburg-Fuhlsbuettel

Current Time: Sep 30, 2016 at 12:06:34 PM

Latest Report: Sep 30, 2016 at 11:20 AM


Visibility: N/A

Pressure: 29.86 "Hg

Humidity: 77%

Dew Point: 52 °F

Location of HamburgLocation

Past Weather in Hamburg — Graph

°F

Hamburg Temperature Yesterday

Maximum temperature yesterday: 70 °F (at 2:20 PM)
Minimum temperature yesterday: 57 °F (at 6:50 PM)
Average temperature yesterday: 63 °F

High & Low Weather Summary for the Past Weeks

 TemperatureHumidityPressure
High79 °F (Sep 15, 2:20 PM)100% (Sep 16, 9:20 PM)30.30 "Hg (Sep 16, 9:20 PM)
Low46 °F (Sep 19, 3:20 AM)38% (Sep 25, 3:20 PM)29.77 "Hg (Sep 29, 2:50 PM)
Average61 °F77%30.08 "Hg
* Reported Sep 15 10:20 AM — Sep 30 10:50 AM, Hamburg, Weather by CustomWeather, © 2016

Note: Actual official high and low records may vary slightly from our data, if they occured in-between our weather recording intervals... More about our weather records

Advertising

Hamburg Weather History for the Previous 24 Hours

Scroll right to see more
 ConditionsComfort  
Time TempWeatherWind HumidityBarometerVisibility
10:50 AM
Fri, Sep 30
59 °FSunny.14 mph82%29.86 "Hg10 mi
10:20 AM57 °FSunny.13 mph88%29.86 "Hg10 mi
9:50 AM57 °FSunny.13 mph88%29.86 "Hg10 mi
9:20 AM57 °FPartly sunny.10 mph88%29.83 "HgN/A
8:50 AM55 °FPartly sunny.12 mph94%29.83 "HgN/A
8:20 AM55 °FPartly sunny.12 mph94%29.83 "HgN/A
7:50 AM55 °FPartly sunny.12 mph94%29.83 "HgN/A
7:20 AM55 °FSunny.10 mph88%29.83 "Hg10 mi
6:50 AM55 °FClear.10 mph88%29.83 "Hg10 mi
6:20 AM55 °FClear.12 mph94%29.83 "Hg10 mi
5:50 AM55 °FPassing clouds.12 mph94%29.83 "HgN/A
5:20 AM55 °FPassing clouds.10 mph94%29.80 "HgN/A
4:50 AM55 °FPassing clouds.9 mph94%29.80 "HgN/A
4:20 AM55 °FPassing clouds.10 mph94%29.80 "HgN/A
3:50 AM55 °FPassing clouds.10 mph94%29.80 "HgN/A
3:20 AM55 °FPartly cloudy.12 mph94%29.80 "HgN/A
2:50 AM55 °FPassing clouds.10 mph94%29.80 "HgN/A
2:20 AM55 °FPassing clouds.9 mph94%29.80 "HgN/A
1:50 AM57 °FPassing clouds.10 mph88%29.80 "HgN/A
1:20 AM57 °FPartly cloudy.10 mph88%29.80 "HgN/A
12:50 AM57 °FPassing clouds.10 mph88%29.80 "HgN/A
12:20 AM57 °FPassing clouds.10 mph88%29.80 "HgN/A
11:50 PM
Thu, Sep 29
57 °FPassing clouds.10 mph88%29.80 "HgN/A
11:20 PM57 °FClear.12 mph88%29.80 "Hg10 mi
10:50 PM57 °FClear.12 mph88%29.80 "Hg10 mi
10:20 PM57 °FPassing clouds.13 mph88%29.80 "HgN/A
9:50 PM57 °FPassing clouds.12 mph88%29.80 "HgN/A
9:20 PM57 °FPassing clouds.9 mph88%29.80 "HgN/A
8:50 PM57 °FPassing clouds.12 mph88%29.80 "HgN/A
8:20 PM57 °FLight rain. Passing clouds.16 mph88%29.80 "HgN/A
7:50 PM57 °FLight rain. Partly cloudy.13 mph94%29.80 "Hg5 mi
7:20 PM57 °FLight rain. Partly cloudy.13 mph94%29.80 "Hg4 mi
6:50 PM57 °FRain. Partly sunny.24 mph94%29.80 "Hg2 mi
6:20 PM66 °FPartly sunny.21 mph68%29.77 "HgN/A
5:50 PM66 °FPartly sunny.22 mph68%29.77 "HgN/A
5:20 PM66 °FPartly sunny.23 mph68%29.77 "HgN/A
4:50 PM66 °FPartly sunny.21 mph73%29.77 "HgN/A
4:20 PM66 °FPartly sunny.22 mph68%29.77 "HgN/A
3:50 PM68 °FPartly sunny.18 mph69%29.77 "HgN/A
3:20 PM68 °FPartly sunny.18 mph69%29.80 "HgN/A
2:50 PM70 °FScattered clouds.24 mph60%29.77 "HgN/A
2:20 PM70 °FScattered clouds.16 mph57%29.80 "HgN/A
1:50 PM68 °FScattered clouds.20 mph60%29.83 "HgN/A
1:20 PM68 °FPartly sunny.18 mph60%29.83 "HgN/A
12:50 PM68 °FPartly sunny.14 mph60%29.83 "HgN/A
12:20 PM66 °FBroken clouds.15 mph60%29.83 "HgN/A
Weather by CustomWeather, © 2016

See weather overviewHow to use our weather pages